CW6666 Weather Reports


Display with metric or nautical units.
time (UTC)temp
F
wind
direction
speed
MPH
gust
MPH
rain 1hr
in
rain 24hr
in
rain mn
in
humidity
%
barometer
mb
20140930114405 79 224 0.0 2.0 0.00 0.14 0.14 92 1000.1
20140930113840 79 225 0.0 2.0 0.00 0.14 0.14 92 1000.1
20140930113417 79 270 0.0 0.0 0.00 0.14 0.14 92 1000.1
20140930112905 79 249 0.0 7.0 0.00 0.14 0.14 92 1000.2
20140930112337 79 265 0.0 7.0 0.00 0.14 0.14 92 1000.2
20140930111411 79 222 0.0 4.0 0.00 0.14 0.14 92 1000.3
20140930110854 79 223 1.0 3.0 0.00 0.14 0.14 92 1000.3
20140930110428 79 260 0.0 3.0 0.00 0.14 0.14 92 1000.3
20140930105856 79 223 0.0 2.0 0.00 0.14 0.14 92 1000.5
20140930104919 79 223 0.0 4.0 0.00 0.14 0.14 92 1000.5
20140930104343 79 215 0.0 0.0 0.00 0.14 0.14 92 1000.6
20140930103411 79 227 0.0 0.0 0.01 0.14 0.14 92 1000.6
20140930102850 79 210 0.0 0.0 0.01 0.14 0.14 92 1000.7
20140930102427 79 246 0.0 0.0 0.01 0.14 0.14 92 1000.7
20140930101848 79 281 0.0 4.0 0.01 0.14 0.14 92 1000.7
20140930101430 79 217 1.0 4.0 0.01 0.14 0.14 92 1000.7
20140930100404 79 248 0.0 1.0 0.01 0.14 0.14 92 1000.7
20140930095836 79 213 0.0 0.0 0.01 0.14 0.14 92 1000.7
20140930095411 79 213 0.0 0.0 0.01 0.14 0.14 92 1000.7
20140930094836 79 213 0.0 0.0 0.01 0.14 0.14 92 1000.7
20140930094420 79 213 0.0 0.0 0.01 0.14 0.14 92 1000.7
20140930093905 78 213 0.0 0.0 0.01 0.14 0.14 92 1000.7
20140930093336 78 221 0.0 1.0 0.00 0.13 0.13 92 1000.7
20140930092932 78 221 0.0 1.0 0.00 0.13 0.13 92 1000.4
20140930092405 78 219 0.0 1.0 0.00 0.13 0.13 91 1000.4
20140930091840 78 219 1.0 1.0 0.00 0.13 0.13 91 1000.4
20140930091424 78 219 0.0 2.0 0.00 0.13 0.13 91 1000.2
20140930090923 78 219 0.0 2.0 0.00 0.13 0.13 91 1000.2
20140930090335 79 219 0.0 5.0 0.00 0.13 0.13 91 1000.2
20140930085409 79 207 1.0 3.0 0.01 0.13 0.13 91 1000.1
20140930084839 79 217 2.0 2.0 0.04 0.13 0.13 91 1000.1
20140930084413 80 219 0.0 3.0 0.05 0.13 0.13 91 999.9
20140930083849 80 217 0.0 3.0 0.06 0.00 0.13 91 999.9
20140930083432 80 213 1.0 2.0 0.06 0.00 0.13 91 999.9
20140930082858 79 210 0.0 1.0 0.06 0.00 0.13 91 999.7
20140930082427 79 210 0.0 3.0 0.06 0.00 0.13 91 999.7
20140930081853 79 203 0.0 4.0 0.06 0.00 0.13 91 999.7
20140930081429 79 221 1.0 4.0 0.06 0.00 0.13 91 999.7
20140930080913 79 220 0.0 3.0 0.06 0.00 0.13 90 999.7
20140930080339 79 215 1.0 2.0 0.06 0.00 0.13 90 999.7
20140930075928 79 215 0.0 4.0 0.06 0.00 0.13 89 999.6
20140930075426 80 284 3.0 11.0 0.06 0.00 0.13 89 999.6
20140930074850 81 286 2.0 12.0 0.03 0.00 0.10 89 999.6
20140930073407 81 227 0.0 0.0 0.00 0.00 0.07 89 999.2
20140930072852 81 225 0.0 0.0 0.00 0.00 0.07 89 999.2
20140930072430 81 231 0.0 1.0 0.00 0.00 0.07 88 999.2
20140930071850 81 231 0.0 2.0 0.00 0.00 0.07 88 999.2
20140930071427 81 231 0.0 2.0 0.00 0.00 0.07 88 999.2
20140930070845 81 272 0.0 1.0 0.00 0.00 0.07 88 999.2
20140930070415 81 272 0.0 2.0 0.00 0.00 0.07 88 999.2
20140930065844 81 272 0.0 2.0 0.00 0.00 0.07 88 999.2
20140930065416 81 273 0.0 0.0 0.00 0.00 0.07 88 999.2
20140930064843 81 273 0.0 1.0 0.00 0.00 0.07 88 999.2
20140930064416 81 273 0.0 1.0 0.00 0.00 0.07 88 999.1
20140930063838 81 298 0.0 0.0 0.00 0.00 0.07 87 999.1
20140930063428 81 298 0.0 1.0 0.00 0.00 0.07 87 999.1
20140930062906 81 298 1.0 1.0 0.00 0.00 0.07 87 999.0
20140930062353 81 284 0.0 1.0 0.00 0.00 0.07 87 999.0
20140930061837 81 284 0.0 2.0 0.00 0.00 0.07 87 999.0
20140930060356 81 293 0.0 2.0 0.00 0.00 0.07 86 998.8
20140930055835 81 278 1.0 2.0 0.00 0.00 0.07 86 998.8
20140930055419 81 269 2.0 3.0 0.00 0.00 0.07 87 998.8
20140930054904 81 293 2.0 3.0 0.00 0.00 0.07 87 998.8
20140930054335 81 302 3.0 5.0 0.00 0.00 0.07 87 999.0
20140930053359 81 286 2.0 10.0 0.00 0.00 0.07 87 999.0
20140930052846 81 285 3.0 5.0 0.00 0.00 0.07 87 999.1
20140930052421 81 284 2.0 5.0 0.00 0.00 0.07 87 999.1
20140930051905 81 302 4.0 5.0 0.00 0.00 0.07 88 999.1
20140930051335 82 271 2.0 5.0 0.00 0.00 0.07 88 999.2
20140930050400 82 296 3.0 5.0 0.00 0.00 0.07 88 999.2
20140930045846 81 289 4.0 5.0 0.00 0.00 0.07 88 999.5
20140930044418 81 302 1.0 7.0 0.00 0.00 0.07 88 999.5
20140930043914 81 304 5.0 7.0 0.00 0.00 0.07 88 999.5
20140930043349 81 306 4.0 12.0 0.00 0.00 0.07 88 999.5
20140930042847 81 294 6.0 12.0 0.00 0.00 0.07 88 999.5
20140930042402 81 290 6.0 8.0 0.00 0.00 0.07 88 999.5
20140930041833 81 298 4.0 10.0 0.00 0.00 0.07 88 999.5
20140930041401 81 300 4.0 10.0 0.00 0.00 0.07 88 999.5
20140930040841 81 296 4.0 9.0 0.00 0.00 0.07 87 999.5
20140930035912 81 294 7.0 13.0 0.00 0.00 0.07 87 999.5
20140930035354 81 219 5.0 13.0 0.00 0.00 0.07 89 999.5
20140930034912 81 293 5.0 11.0 0.00 0.00 0.07 89 999.5
20140930034350 81 315 3.0 11.0 0.00 0.00 0.07 89 999.6
20140930031849 80 288 4.0 10.0 0.00 0.00 0.07 89 999.7
20140930031425 80 305 3.0 10.0 0.00 0.00 0.07 89 1000.0
20140930030854 80 286 3.0 5.0 0.02 0.00 0.07 89 1000.0
20140930030341 79 298 3.0 7.0 0.05 0.00 0.07 89 1000.0
20140930025901 79 299 4.0 7.0 0.07 0.00 0.07 89 1000.1
20140930024406 79 273 4.0 15.0 0.07 0.00 0.07 90 1000.2
20140930023842 79 296 2.0 7.0 0.07 0.00 0.07 91 1000.2
20140930023409 79 289 4.0 7.0 0.07 0.00 0.07 90 1000.2
20140930022840 78 292 5.0 11.0 0.07 0.00 0.07 90 1000.8
20140930022418 78 294 5.0 11.0 0.07 0.00 0.07 90 1000.8
20140930021903 79 300 6.0 15.0 0.07 0.00 0.07 89 1000.8
20140930021431 79 282 7.0 15.0 0.07 0.00 0.07 89 1001.0
20140930020848 81 298 5.0 14.0 0.06 0.00 0.06 86 1001.0
20140930020334 84 303 9.0 14.0 0.02 0.00 0.02 84 1001.0
20140930015359 85 271 7.0 13.0 0.00 0.00 0.00 85 1001.3
20140930014851 85 290 3.0 13.0 0.00 0.00 0.00 84 1001.3
20140930014414 85 321 6.0 10.0 0.00 0.00 0.00 84 1001.6
20140930013900 85 296 5.0 12.0 0.00 0.00 0.00 84 1001.6
20140930013359 85 288 4.0 12.0 0.00 0.00 0.00 84 1001.6
20140930012926 85 298 5.0 13.0 0.00 0.00 0.00 83 1001.7
20140930011914 85 302 6.0 12.0 0.00 0.00 0.00 83 1001.7
20140930011355 85 288 7.0 13.0 0.00 0.00 0.00 83 1001.9
20140930010929 85 319 9.0 13.0 0.00 0.00 0.00 83 1001.9
20140930010330 85 291 9.0 13.0 0.00 0.00 0.00 82 1001.9
20140930005356 85 298 5.0 11.0 0.00 0.00 0.00 84 1002.3
20140930004846 85 303 4.0 12.0 0.00 0.00 0.00 84 1002.3
20140930004430 85 291 8.0 12.0 0.00 0.00 0.00 83 1002.3
20140930003859 85 294 6.0 10.0 0.00 0.00 0.00 83 1002.3
20140930003424 85 270 5.0 9.0 0.00 0.00 0.00 84 1002.3
20140930002855 85 304 1.0 7.0 0.00 0.00 0.00 85 1002.7
20140930002420 85 288 3.0 11.0 0.00 0.00 0.00 86 1002.7
20140930001844 85 298 7.0 11.0 0.00 0.00 0.00 85 1002.7
20140930001410 85 305 5.0 7.0 0.00 0.00 0.00 87 1002.7
20140930000417 84 300 4.0 10.0 0.00 0.00 0.00 87 1002.7
20140929235839 84 297 1.0 5.0 0.00 0.00 0.00 87 1002.8
20140929235403 84 294 3.0 5.0 0.00 0.00 0.00 87 1002.8
20140929234833 84 298 2.0 2.0 0.00 0.00 0.00 88 1002.8
20140929234429 83 267 0.0 2.0 0.00 0.00 0.00 88 1002.7
20140929233911 83 290 0.0 4.0 0.00 0.00 0.00 88 1002.7
20140929233345 83 299 0.0 6.0 0.00 0.00 0.00 88 1002.7
20140929232417 83 301 3.0 4.0 0.00 0.00 0.00 88 1002.5
20140929231404 83 292 3.0 3.0 0.00 0.00 0.00 88 1002.7
20140929230854 83 292 0.0 3.0 0.00 0.00 0.00 88 1002.7
20140929230346 83 293 0.0 0.0 0.00 0.00 0.00 89 1002.7
20140929224859 83 239 0.0 0.0 0.00 0.00 0.00 90 1002.8
20140929224432 82 313 0.0 1.0 0.00 0.00 0.00 90 1002.7
20140929223848 82 305 0.0 1.0 0.00 0.00 0.00 90 1002.7
20140929223419 82 279 0.0 0.0 0.00 0.00 0.00 90 1002.7
20140929222908 82 290 0.0 0.0 0.00 0.00 0.00 91 1002.7
20140929222343 81 248 0.0 0.0 0.00 0.00 0.00 91 1002.7
20140929220855 81 240 0.0 0.0 0.00 0.00 0.00 91 1002.7
20140929220418 81 240 0.0 0.0 0.00 0.00 0.00 91 1002.7
20140929215902 81 238 0.0 0.0 0.00 0.00 0.00 92 1002.5
20140929215425 80 238 0.0 0.0 0.00 0.00 0.00 92 1002.5
20140929214911 80 235 0.0 0.0 0.00 0.00 0.00 92 1002.5
20140929214340 80 257 0.0 0.0 0.00 0.00 0.00 92 1002.2
20140929213842 80 255 0.0 0.0 0.00 0.00 0.00 92 1002.2
20140929212911 80 286 0.0 0.0 0.00 0.00 0.00 92 1002.0
20140929212342 79 275 0.0 0.0 0.00 0.00 0.00 92 1002.0
20140929211416 79 272 0.0 0.0 0.00 0.00 0.00 93 1001.8
20140929210859 79 271 0.0 0.0 0.00 0.00 0.00 93 1001.8
20140929205906 79 232 0.0 0.0 0.00 0.00 0.00 93 1002.0
20140929205334 79 63 0.0 0.0 0.00 0.00 0.00 93 1002.0
20140929204414 79 63 0.0 0.0 0.00 0.00 0.00 93 1001.7
20140929203857 79 63 0.0 0.0 0.00 0.00 0.00 93 1001.7
20140929202358 78 63 0.0 0.0 0.00 0.00 0.00 93 1001.7
20140929201841 78 63 0.0 0.0 0.00 0.00 0.00 93 1001.7
20140929200912 78 63 0.0 0.0 0.00 0.00 0.00 93 1001.5
20140929200415 78 63 0.0 0.0 0.00 0.00 0.00 93 1001.5
20140929195852 78 63 0.0 0.0 0.00 0.00 0.00 93 1001.4
20140929195423 78 63 0.0 0.0 0.00 0.00 0.00 93 1001.4
20140929194851 78 63 0.0 0.0 0.00 0.00 0.00 93 1001.4
20140929193355 78 63 0.0 0.0 0.00 0.00 0.00 93 1001.2
20140929192847 78 63 0.0 0.0 0.00 0.00 0.00 93 1001.2
20140929192413 78 63 0.0 0.0 0.00 0.00 0.00 93 1001.2
20140929191903 78 63 0.0 0.0 0.00 0.00 0.00 93 1001.2
20140929190918 78 64 0.0 0.0 0.00 0.00 0.00 93 1001.2
20140929190337 78 65 0.0 0.0 0.00 0.00 0.00 93 1001.2
20140929185411 78 65 0.0 3.0 0.00 0.00 0.00 93 1001.2
20140929184851 78 65 1.0 3.0 0.00 0.00 0.00 93 1001.2
20140929183412 78 65 0.0 0.0 0.00 0.00 0.00 93 1001.5
20140929182837 78 65 0.0 0.0 0.00 0.00 0.00 92 1001.3
20140929181916 78 65 0.0 0.0 0.00 0.00 0.00 92 1001.3
20140929180856 78 65 0.0 2.0 0.00 0.00 0.00 92 1001.5
20140929175912 78 65 0.0 0.0 0.00 0.00 0.00 92 1001.7
20140929175350 78 65 0.0 0.0 0.00 0.00 0.00 92 1001.7
20140929174409 78 65 0.0 0.0 0.00 0.00 0.00 92 1001.7
20140929173841 78 65 0.0 0.0 0.00 0.00 0.00 92 1001.7
20140929172408 78 65 0.0 0.0 0.00 0.00 0.00 92 1001.6
20140929171854 78 65 0.0 0.0 0.00 0.00 0.00 92 1001.6
20140929170903 78 65 0.0 0.0 0.00 0.00 0.00 92 1001.7
20140929170422 78 65 0.0 0.0 0.00 0.00 0.00 92 1001.7
20140929165839 78 65 0.0 0.0 0.00 0.00 0.00 92 1001.7
20140929165423 78 65 0.0 0.0 0.00 0.00 0.00 92 1001.7
20140929164404 78 65 0.0 0.0 0.00 0.00 0.00 92 1001.8
20140929163841 78 65 0.0 0.0 0.00 0.00 0.00 92 1001.8
20140929162920 78 65 0.0 1.0 0.00 0.00 0.00 92 1001.7
20140929162351 78 65 0.0 0.0 0.00 0.00 0.00 92 1001.7
20140929161837 78 65 0.0 0.0 0.00 0.00 0.00 92 1001.7
20140929161431 79 65 0.0 0.0 0.00 0.00 0.00 92 1002.2
20140929160914 79 65 0.0 0.0 0.00 0.00 0.00 92 1002.2
20140929160445 79 65 0.0 0.0 0.00 0.00 0.00 92 1002.2
20140929155833 79 65 0.0 0.0 0.00 0.00 0.00 92 1002.2
20140929155404 79 65 0.0 0.0 0.00 0.00 0.00 92 1002.2
20140929154848 79 65 0.0 0.0 0.00 0.00 0.00 91 1002.2
20140929154340 79 65 0.0 0.0 0.00 0.00 0.00 91 1002.2
20140929153846 79 65 0.0 0.0 0.00 0.00 0.00 91 1002.2
20140929153337 79 65 0.0 0.0 0.00 0.00 0.00 91 1002.2
20140929152844 79 65 0.0 0.0 0.00 0.00 0.00 91 1002.4
20140929152333 79 65 0.0 0.0 0.00 0.00 0.00 91 1002.4
20140929151838 79 65 0.0 0.0 0.00 0.00 0.00 91 1002.4
20140929151347 79 65 0.0 0.0 0.00 0.00 0.00 91 1002.2
20140929150832 79 65 0.0 0.0 0.00 0.00 0.00 91 1002.2
20140929150347 80 65 0.0 0.0 0.00 0.00 0.00 90 1002.2
20140929145850 80 65 0.0 0.0 0.00 0.00 0.00 90 1002.2
20140929145338 80 65 0.0 0.0 0.00 0.00 0.00 90 1002.2
20140929144847 80 65 0.0 0.0 0.00 0.00 0.00 90 1002.2
20140929144334 80 65 0.0 2.0 0.00 0.00 0.00 89 1002.3
20140929143839 81 65 0.0 2.0 0.00 0.00 0.00 89 1002.3
20140929143346 81 65 1.0 2.0 0.00 0.00 0.00 88 1002.3
20140929142832 82 65 0.0 3.0 0.00 0.00 0.00 88 1002.8
20140929142412 82 65 2.0 3.0 0.00 0.00 0.00 87 1002.8
20140929141857 83 65 0.0 4.0 0.00 0.00 0.00 86 1002.8
20140929141345 83 65 2.0 6.0 0.00 0.00 0.00 85 1002.9
20140929140833 84 65 5.0 9.0 0.00 0.00 0.00 85 1002.9
20140929140339 84 63 6.0 9.0 0.00 0.00 0.00 85 1002.9
20140929135836 83 66 6.0 7.0 0.00 0.00 0.41 85 1003.0
20140929135423 83 66 4.0 7.0 0.00 0.00 0.41 86 1003.0
20140929134859 83 72 5.0 7.0 0.00 0.00 0.41 86 1003.0
20140929134336 83 67 4.0 6.0 0.00 0.00 0.41 87 1003.2
20140929133936 83 78 5.0 6.0 0.00 0.00 0.41 87 1003.2
20140929133342 83 79 3.0 5.0 0.00 0.00 0.41 87 1003.2
20140929132841 83 76 4.0 7.0 0.00 0.00 0.41 87 1003.2
20140929132424 83 76 5.0 7.0 0.00 0.00 0.41 87 1003.2
20140929131418 83 68 7.0 8.0 0.00 0.00 0.41 87 1003.2
20140929130841 83 75 7.0 10.0 0.00 0.00 0.41 86 1003.2
20140929130427 83 101 5.0 12.0 0.00 0.00 0.41 85 1003.2
20140929125857 83 86 10.0 12.0 0.00 0.00 0.41 86 1003.2
20140929124922 83 55 5.0 6.0 0.00 0.00 0.41 87 1003.2
20140929124407 83 84 5.0 7.0 0.00 0.00 0.41 87 1003.3
20140929123858 83 84 5.0 10.0 0.00 0.00 0.41 87 1003.3
20140929122355 84 97 4.0 6.0 0.00 0.00 0.41 86 1003.4
20140929121842 84 69 5.0 6.0 0.00 0.00 0.41 86 1003.4
20140929120910 84 72 5.0 6.0 0.00 0.00 0.41 86 1003.5
20140929120342 84 71 4.0 6.0 0.00 0.00 0.41 86 1003.5
20140929115927 84 71 5.0 7.0 0.00 0.00 0.41 86 1003.7